STARLINK-32845, 62815

Orbit data source: Space-Track

STARLINK-32845, 62815 is a payload satellite owned by SpaceX/Seattle (US) in LEO that was launched on Fri, 24 Jan 2025 UTC via an FALCON 9 launch vehicle from the Air Force Western Test Range (AFWTR). Payload-class satellites include a variety of spacecraft equipped with specific instruments for various scientific and technological missions. These include communications satellites like Starlink; space stations such as the ISS; scientific satellites like the Hubble; Earth observation satellites from companies like Planet Labs, Umbra, and HawkEye 360; GPS; miniature CubeSats for education and research; and military/defense satellites.

Loading next visibility...
Identifier
62815, 2025-018K
Orbit
LEO
Country
Flag of USUS
Related business
Manufacturer
SpaceX/Seattle
Mission
Operational Commercial Communications
Bus & Motor
STARLINK V2M, Unknown motor
Mass
730 kg wet, ~700 kg dry
Launch date (UTC)
2025-01-24 (1 year ago)
Launch vehicle
FALCON 9
Launch site
Air Force Western Test Range (AFWTR)
Object type
Payload
Rocket body
Debris
Shape & HBR
Box + 2 Pan, 17.7 m
Radar Cross Section
33.884 m², Large (>1 m²)

Expand to show TLE details & history
Last TLE update: 15 hours ago

TLE from 15 hours ago
0 STARLINK-32845
1 62815U 25018K   26121.21661779  .00022725  00000-0  77688-3 0  9996
2 62815  53.1591  65.3894 0001548  92.6443 267.4735 15.30206255 71213
Epoch: 2026-05-01T05:11Z
TLE epoch observation values (Epoch: 2026-05-01T05:11:55.777Z)
Latitude
Longitude
128.25495°
Altitude
476.143 km
Speed
7.629 km/s
True Right ascension
04h 21m 33s
True Declination
0° 00' 00"
Sunlit
Object was in daylight at epoch
Visualization orbit readout
Latitude
Unknown
Longitude
Unknown
Altitude
Unknown
Speed
Unknown
Apparent Right ascension
Unknown
Apparent Declination
Unknown
Sunlit
N/A
Visualization observer readout
Local Sidereal Time
03:50:02
Azimuth
Unknown
Elevation
Unknown
Doppler factor
Unknown
Orbital elements
Apogee altitude
476.514 km
Perigee altitude
474.392 km
Semi-major axis
6,853.59 km
Eccentricity
0.00015
Inclination
53.1591°
RAAN
65.3894°
Arg. of periapsis
92.6443°
True anomaly
267.45578°
Mean anomaly
267.4735°
Eccentric anomaly
267.46464°
Mean motion
3.8253 °/min
Orbital period
94.11 mins
BSTAR
0.00077688
Loading maneuver chart data...
Computing Atmospheric mass density...
Loading historical data...
Loading historical data...
Loading historical data...
Loading historical data...
Loading historical data...
Loading historical data...
Loading historical data...

Documentation

Showing up to 5 results
|